Time,TemperatureF,DewpointF,PressureIn,WindDirection,WindDirectionDegrees,WindSpeedMPH,WindSpeedGustMPH,Humidity,HourlyPrecipIn,Conditions,Clouds,dailyrainin,SoftwareType,DateUTC
2013-06-08 00:09:00,66.6,53.0,29.91,NNE,26,0.0,-999.0,63,-99.99,,,0.00,weatherlink.com 1.10,2013-06-08 05:09:00,
2013-06-08 00:24:00,67.1,53.0,29.92,NE,43,3.0,-999.0,62,-99.99,,,0.00,weatherlink.com 1.10,2013-06-08 05:24:00,
2013-06-08 00:39:00,67.0,53.0,29.92,NE,56,8.0,-999.0,62,-99.99,,,0.00,weatherlink.com 1.10,2013-06-08 05:39:00,
2013-06-08 00:54:00,66.5,53.0,29.91,ENE,59,10.0,-999.0,63,-99.99,,,0.00,weatherlink.com 1.10,2013-06-08 05:54:00,
2013-06-08 01:09:00,66.3,53.0,29.90,ENE,72,6.0,-999.0,63,-99.99,,,0.00,weatherlink.com 1.10,2013-06-08 06:09:00,
2013-06-08 01:24:00,65.9,53.0,29.90,ENE,76,4.0,-999.0,64,-99.99,,,0.00,weatherlink.com 1.10,2013-06-08 06:24:00,
2013-06-08 01:39:00,65.8,53.0,29.91,ENE,77,4.0,-999.0,64,-99.99,,,0.00,weatherlink.com 1.10,2013-06-08 06:39:00,
2013-06-08 01:54:00,65.7,53.0,29.90,ENE,76,7.0,-999.0,64,-99.99,,,0.00,weatherlink.com 1.10,2013-06-08 06:54:00,
2013-06-08 02:09:00,65.4,53.0,29.90,ENE,76,5.0,-999.0,64,-99.99,,,0.00,weatherlink.com 1.10,2013-06-08 07:09:00,
2013-06-08 02:24:00,65.0,53.0,29.90,ENE,77,4.0,-999.0,65,-99.99,,,0.00,weatherlink.com 1.10,2013-06-08 07:24:00,
2013-06-08 02:39:00,64.7,53.0,29.90,ENE,78,4.0,-999.0,66,-99.99,,,0.00,weatherlink.com 1.10,2013-06-08 07:39:00,
2013-06-08 02:54:00,64.5,53.0,29.90,ENE,78,7.0,-999.0,66,-99.99,,,0.00,weatherlink.com 1.10,2013-06-08 07:54:00,
2013-06-08 03:09:00,64.4,53.0,29.91,East,79,0.0,-999.0,67,-99.99,,,0.00,weatherlink.com 1.10,2013-06-08 08:09:00,
2013-06-08 03:24:00,64.2,53.0,29.90,East,79,2.0,-999.0,67,-99.99,,,0.00,weatherlink.com 1.10,2013-06-08 08:24:00,
2013-06-08 03:39:00,64.2,53.0,29.90,East,79,5.0,-999.0,67,-99.99,,,0.00,weatherlink.com 1.10,2013-06-08 08:39:00,
2013-06-08 03:54:00,63.6,53.0,29.90,East,79,2.0,-999.0,69,-99.99,,,0.00,weatherlink.com 1.10,2013-06-08 08:54:00,
2013-06-08 04:09:00,63.4,53.0,29.90,East,79,0.0,-999.0,69,-99.99,,,0.00,weatherlink.com 1.10,2013-06-08 09:09:00,
2013-06-08 04:24:00,63.3,53.0,29.91,East,79,0.0,-999.0,69,-99.99,,,0.00,weatherlink.com 1.10,2013-06-08 09:24:00,
2013-06-08 04:39:00,63.1,53.0,29.91,East,79,0.0,-999.0,70,-99.99,,,0.00,weatherlink.com 1.10,2013-06-08 09:39:00,
2013-06-08 04:54:00,62.9,53.0,29.91,East,79,0.0,-999.0,71,-99.99,,,0.00,weatherlink.com 1.10,2013-06-08 09:54:00,
2013-06-08 05:09:00,62.6,53.0,29.91,East,79,0.0,-999.0,71,-99.99,,,0.00,weatherlink.com 1.10,2013-06-08 10:09:00,
2013-06-08 05:24:00,62.3,53.0,29.91,East,79,0.0,-999.0,72,-99.99,,,0.00,weatherlink.com 1.10,2013-06-08 10:24:00,
2013-06-08 05:39:00,61.9,53.0,29.91,East,79,0.0,-999.0,72,-99.99,,,0.00,weatherlink.com 1.10,2013-06-08 10:39:00,
2013-06-08 05:54:00,62.0,53.0,29.91,East,79,0.0,-999.0,73,-99.99,,,0.00,weatherlink.com 1.10,2013-06-08 10:54:00,
2013-06-08 06:09:00,61.5,53.0,29.91,East,79,0.0,-999.0,74,-99.99,,,0.00,weatherlink.com 1.10,2013-06-08 11:09:00,
2013-06-08 06:24:00,61.6,53.0,29.91,East,79,0.0,-999.0,74,-99.99,,,0.00,weatherlink.com 1.10,2013-06-08 11:24:00,
2013-06-08 06:39:00,62.1,54.0,29.92,East,79,0.0,-999.0,74,-99.99,,,0.00,weatherlink.com 1.10,2013-06-08 11:39:00,
2013-06-08 06:54:00,62.7,54.0,29.92,East,79,0.0,-999.0,74,-99.99,,,0.00,weatherlink.com 1.10,2013-06-08 11:54:00,
2013-06-08 07:09:00,63.1,54.0,29.92,East,79,0.0,-999.0,73,-99.99,,,0.00,weatherlink.com 1.10,2013-06-08 12:09:00,
2013-06-08 07:24:00,63.1,54.0,29.92,East,79,0.0,-999.0,73,-99.99,,,0.00,weatherlink.com 1.10,2013-06-08 12:24:00,
2013-06-08 07:39:00,63.4,55.0,29.93,East,81,0.0,-999.0,74,-99.99,,,0.00,weatherlink.com 1.10,2013-06-08 12:39:00,
2013-06-08 07:54:00,64.6,56.0,29.93,East,82,0.0,-999.0,73,-99.99,,,0.00,weatherlink.com 1.10,2013-06-08 12:54:00,
2013-06-08 08:09:00,66.5,57.0,29.93,East,83,0.0,-999.0,71,-99.99,,,0.00,weatherlink.com 1.10,2013-06-08 13:09:00,
2013-06-08 08:24:00,67.6,57.0,29.93,East,83,0.0,-999.0,69,-99.99,,,0.00,weatherlink.com 1.10,2013-06-08 13:24:00,
2013-06-08 08:39:00,68.9,59.0,29.93,East,83,0.0,-999.0,70,-99.99,,,0.00,weatherlink.com 1.10,2013-06-08 13:39:00,
2013-06-08 08:54:00,69.9,58.0,29.94,East,88,0.0,-999.0,65,-99.99,,,0.00,weatherlink.com 1.10,2013-06-08 13:54:00,
2013-06-08 09:09:00,70.2,56.0,29.94,East,88,0.0,-999.0,62,-99.99,,,0.00,weatherlink.com 1.10,2013-06-08 14:09:00,
2013-06-08 09:24:00,71.3,58.0,29.94,East,88,0.0,-999.0,64,-99.99,,,0.00,weatherlink.com 1.10,2013-06-08 14:24:00,
2013-06-08 09:44:00,72.6,59.0,29.94,East,90,0.0,-999.0,63,-99.99,,,0.00,weatherlink.com 1.10,2013-06-08 14:44:00,
2013-06-08 09:54:00,73.0,58.0,29.93,East,90,0.0,-999.0,60,-99.99,,,0.00,weatherlink.com 1.10,2013-06-08 14:54:00,
2013-06-08 10:09:00,73.5,58.0,29.93,East,93,0.0,-999.0,59,-99.99,,,0.00,weatherlink.com 1.10,2013-06-08 15:09:00,
2013-06-08 10:24:00,72.9,57.0,29.93,SE,127,0.0,-999.0,58,-99.99,,,0.00,weatherlink.com 1.10,2013-06-08 15:24:00,
2013-06-08 10:39:00,72.7,59.0,29.93,SE,146,0.0,-999.0,63,-99.99,,,0.00,weatherlink.com 1.10,2013-06-08 15:39:00,
2013-06-08 10:54:00,73.4,60.0,29.94,South,171,0.0,-999.0,63,-99.99,,,0.00,weatherlink.com 1.10,2013-06-08 15:54:00,
2013-06-08 11:09:00,73.9,60.0,29.94,SSW,213,4.0,-999.0,63,-99.99,,,0.00,weatherlink.com 1.10,2013-06-08 16:09:00,
2013-06-08 11:24:00,74.1,61.0,29.94,SW,219,0.0,-999.0,64,-99.99,,,0.00,weatherlink.com 1.10,2013-06-08 16:24:00,
2013-06-08 11:39:00,74.8,62.0,29.93,SW,218,0.0,-999.0,65,-99.99,,,0.00,weatherlink.com 1.10,2013-06-08 16:39:00,
2013-06-08 11:54:00,74.9,61.0,29.93,SW,232,0.0,-999.0,62,-99.99,,,0.00,weatherlink.com 1.10,2013-06-08 16:54:00,
2013-06-08 12:09:00,76.0,60.0,29.93,WSW,237,0.0,-999.0,58,-99.99,,,0.00,weatherlink.com 1.10,2013-06-08 17:09:00,
2013-06-08 12:24:00,76.2,59.0,29.92,SW,234,0.0,-999.0,55,-99.99,,,0.00,weatherlink.com 1.10,2013-06-08 17:24:00,
2013-06-08 12:39:00,78.1,59.0,29.92,SW,236,0.0,-999.0,52,-99.99,,,0.00,weatherlink.com 1.10,2013-06-08 17:39:00,
2013-06-08 12:54:00,77.0,60.0,29.92,WSW,248,0.0,-999.0,57,-99.99,,,0.00,weatherlink.com 1.10,2013-06-08 17:54:00,
2013-06-08 13:09:00,77.1,59.0,29.91,WSW,246,7.0,-999.0,54,-99.99,,,0.00,weatherlink.com 1.10,2013-06-08 18:09:00,
2013-06-08 13:24:00,78.1,58.0,29.91,WSW,240,0.0,-999.0,50,-99.99,,,0.00,weatherlink.com 1.10,2013-06-08 18:24:00,
2013-06-08 13:39:00,78.8,58.0,29.91,WSW,248,0.0,-999.0,49,-99.99,,,0.00,weatherlink.com 1.10,2013-06-08 18:39:00,
2013-06-08 13:54:00,78.5,58.0,29.91,WSW,241,1.0,-999.0,50,-99.99,,,0.00,weatherlink.com 1.10,2013-06-08 18:54:00,
2013-06-08 14:09:00,78.7,59.0,29.90,WSW,250,4.0,-999.0,51,-99.99,,,0.00,weatherlink.com 1.10,2013-06-08 19:09:00,
2013-06-08 14:24:00,79.4,59.0,29.90,WSW,242,0.0,-999.0,49,-99.99,,,0.00,weatherlink.com 1.10,2013-06-08 19:24:00,
2013-06-08 14:39:00,79.7,57.0,29.89,SW,234,0.0,-999.0,46,-99.99,,,0.00,weatherlink.com 1.10,2013-06-08 19:39:00,
2013-06-08 14:54:00,79.3,57.0,29.89,SW,232,0.0,-999.0,47,-99.99,,,0.00,weatherlink.com 1.10,2013-06-08 19:54:00,
2013-06-08 15:09:00,79.4,58.0,29.89,SW,227,0.0,-999.0,48,-99.99,,,0.00,weatherlink.com 1.10,2013-06-08 20:09:00,
2013-06-08 15:24:00,79.6,58.0,29.89,SW,224,0.0,-999.0,48,-99.99,,,0.00,weatherlink.com 1.10,2013-06-08 20:24:00,
2013-06-08 15:39:00,79.3,59.0,29.89,SW,223,0.0,-999.0,50,-99.99,,,0.00,weatherlink.com 1.10,2013-06-08 20:39:00,
2013-06-08 15:54:00,78.3,59.0,29.88,SW,215,0.0,-999.0,52,-99.99,,,0.00,weatherlink.com 1.10,2013-06-08 20:54:00,
2013-06-08 16:09:00,77.9,57.0,29.88,SSW,206,0.0,-999.0,49,-99.99,,,0.00,weatherlink.com 1.10,2013-06-08 21:09:00,
2013-06-08 16:24:00,78.0,58.0,29.88,SSW,206,0.0,-999.0,51,-99.99,,,0.00,weatherlink.com 1.10,2013-06-08 21:24:00,
2013-06-08 16:39:00,76.9,58.0,29.88,SSW,202,3.0,-999.0,52,-99.99,,,0.00,weatherlink.com 1.10,2013-06-08 21:39:00,
2013-06-08 16:54:00,77.2,58.0,29.88,SSW,202,0.0,-999.0,51,-99.99,,,0.00,weatherlink.com 1.10,2013-06-08 21:54:00,
2013-06-08 17:09:00,77.6,58.0,29.88,SSW,202,0.0,-999.0,52,-99.99,,,0.00,weatherlink.com 1.10,2013-06-08 22:09:00,
2013-06-08 17:24:00,77.1,58.0,29.87,SSW,199,0.0,-999.0,52,-99.99,,,0.00,weatherlink.com 1.10,2013-06-08 22:24:00,
2013-06-08 17:39:00,77.2,58.0,29.87,SSW,199,0.0,-999.0,52,-99.99,,,0.00,weatherlink.com 1.10,2013-06-08 22:39:00,
2013-06-08 17:54:00,76.1,58.0,29.87,SSW,199,0.0,-999.0,54,-99.99,,,0.00,weatherlink.com 1.10,2013-06-08 22:54:00,
2013-06-08 18:09:00,74.7,58.0,29.86,SSW,198,4.0,-999.0,57,-99.99,,,0.00,weatherlink.com 1.10,2013-06-08 23:09:00,
2013-06-08 18:24:00,75.1,58.0,29.86,SSW,198,0.0,-999.0,56,-99.99,,,0.00,weatherlink.com 1.10,2013-06-08 23:24:00,
2013-06-08 18:39:00,75.0,58.0,29.86,SSW,197,0.0,-999.0,56,-99.99,,,0.00,weatherlink.com 1.10,2013-06-08 23:39:00,
2013-06-08 18:54:00,73.7,57.0,29.87,SSW,200,0.0,-999.0,57,-99.99,,,0.00,weatherlink.com 1.10,2013-06-08 23:54:00,
2013-06-08 19:09:00,72.7,58.0,29.86,SSW,198,0.0,-999.0,60,-99.99,,,0.00,weatherlink.com 1.10,2013-06-09 00:09:00,
2013-06-08 19:24:00,72.2,58.0,29.87,SSW,201,4.0,-999.0,61,-99.99,,,0.00,weatherlink.com 1.10,2013-06-09 00:24:00,
2013-06-08 19:39:00,72.0,58.0,29.87,SSW,200,4.0,-999.0,61,-99.99,,,0.00,weatherlink.com 1.10,2013-06-09 00:39:00,
2013-06-08 19:54:00,71.8,58.0,29.88,SSW,204,3.0,-999.0,62,-99.99,,,0.00,weatherlink.com 1.10,2013-06-09 00:54:00,
2013-06-08 20:09:00,71.5,58.0,29.88,SSW,204,0.0,-999.0,62,-99.99,,,0.00,weatherlink.com 1.10,2013-06-09 01:09:00,
2013-06-08 20:24:00,71.2,57.0,29.87,SSW,197,8.0,-999.0,62,-99.99,,,0.00,weatherlink.com 1.10,2013-06-09 01:24:00,
2013-06-08 20:39:00,70.9,57.0,29.86,South,186,4.0,-999.0,62,-99.99,,,0.00,weatherlink.com 1.10,2013-06-09 01:39:00,
2013-06-08 20:54:00,70.7,57.0,29.87,South,184,2.0,-999.0,62,-99.99,,,0.00,weatherlink.com 1.10,2013-06-09 01:54:00,
2013-06-08 21:09:00,70.8,57.0,29.87,SSW,211,4.0,-999.0,62,-99.99,,,0.00,weatherlink.com 1.10,2013-06-09 02:09:00,
2013-06-08 21:24:00,70.5,57.0,29.87,SSW,206,0.0,-999.0,63,-99.99,,,0.00,weatherlink.com 1.10,2013-06-09 02:24:00,
2013-06-08 21:39:00,70.3,57.0,29.89,SSW,198,4.0,-999.0,63,-99.99,,,0.00,weatherlink.com 1.10,2013-06-09 02:39:00,
2013-06-08 21:54:00,70.3,57.0,29.89,SSW,192,3.0,-999.0,63,-99.99,,,0.00,weatherlink.com 1.10,2013-06-09 02:54:00,
2013-06-08 22:09:00,70.2,57.0,29.90,SSW,192,3.0,-999.0,63,-99.99,,,0.00,weatherlink.com 1.10,2013-06-09 03:09:00,
2013-06-08 22:24:00,70.2,57.0,29.90,SSW,199,3.0,-999.0,64,-99.99,,,0.00,weatherlink.com 1.10,2013-06-09 03:24:00,
2013-06-08 22:54:00,69.9,58.0,29.91,SSW,198,2.0,-999.0,66,-99.99,,,0.00,weatherlink.com 1.10,2013-06-09 03:54:00,
2013-06-08 23:09:00,69.9,58.0,29.91,SSW,200,0.0,-999.0,66,-99.99,,,0.00,weatherlink.com 1.10,2013-06-09 04:09:00,
2013-06-08 23:24:00,69.6,58.0,29.90,SSW,198,0.0,-999.0,67,-99.99,,,0.00,weatherlink.com 1.10,2013-06-09 04:24:00,
2013-06-08 23:39:00,69.5,58.0,29.90,SSW,197,4.0,-999.0,67,-99.99,,,0.00,weatherlink.com 1.10,2013-06-09 04:39:00,
2013-06-08 23:54:00,69.4,58.0,29.90,SSW,194,2.0,-999.0,68,-99.99,,,0.00,weatherlink.com 1.10,2013-06-09 04:54:00,